Year,Month,Day,Hour,Minute,Value (Times are PST for temperature in C)
2009,03,31,00,00,6.20
2009,03,31,00,02,6.20
2009,03,31,00,03,6.20
2009,03,31,00,04,6.20
2009,03,31,00,05,6.10
2009,03,31,00,06,6.10
2009,03,31,00,07,6.10
2009,03,31,00,08,6.10
2009,03,31,00,10,6.10
2009,03,31,00,11,6.10
2009,03,31,00,12,6.00
2009,03,31,00,14,6.00
2009,03,31,00,15,6.00
2009,03,31,00,16,5.90
2009,03,31,00,17,5.90
2009,03,31,00,18,5.90
2009,03,31,00,20,5.90
2009,03,31,00,21,5.90
2009,03,31,00,22,5.90
2009,03,31,00,23,5.90
2009,03,31,00,24,5.90
2009,03,31,00,25,5.80
2009,03,31,00,26,5.80
2009,03,31,00,27,5.80
2009,03,31,00,28,5.80
2009,03,31,00,29,5.80
2009,03,31,00,30,5.80
2009,03,31,00,32,5.80
2009,03,31,00,33,5.80
2009,03,31,00,35,5.80
2009,03,31,00,36,5.70
2009,03,31,00,37,5.70
2009,03,31,00,38,5.70
2009,03,31,00,40,5.70
2009,03,31,00,41,5.70
2009,03,31,00,42,5.70
2009,03,31,00,43,5.70
2009,03,31,00,44,5.70
2009,03,31,00,45,5.60
2009,03,31,00,46,5.60
2009,03,31,00,47,5.60
2009,03,31,00,48,5.60
2009,03,31,00,49,5.60
2009,03,31,00,50,5.60
2009,03,31,00,51,5.50
2009,03,31,00,52,5.50
2009,03,31,00,53,5.50
2009,03,31,00,54,5.50
2009,03,31,00,55,5.40
2009,03,31,00,56,5.40
2009,03,31,00,57,5.40
2009,03,31,00,58,5.40
2009,03,31,00,59,5.40
2009,03,31,01,00,5.40
2009,03,31,01,02,5.40
2009,03,31,01,03,5.40
2009,03,31,01,04,5.40
2009,03,31,01,05,5.40
2009,03,31,01,07,5.30
2009,03,31,01,08,5.30
2009,03,31,01,09,5.30
2009,03,31,01,10,5.30
2009,03,31,01,11,5.30
2009,03,31,01,12,5.30
2009,03,31,01,13,5.30
2009,03,31,01,14,5.30
2009,03,31,01,15,5.30
2009,03,31,01,16,5.30
2009,03,31,01,17,5.30
2009,03,31,01,18,5.30
2009,03,31,01,19,5.30
2009,03,31,01,20,5.30
2009,03,31,01,21,5.30
2009,03,31,01,22,5.30
2009,03,31,01,23,5.20
2009,03,31,01,24,5.20
2009,03,31,01,25,5.20
2009,03,31,01,26,5.20
2009,03,31,01,28,5.20
2009,03,31,01,29,5.20
2009,03,31,01,30,5.20
2009,03,31,01,31,5.20
2009,03,31,01,32,5.20
2009,03,31,01,33,5.20
2009,03,31,01,34,5.20
2009,03,31,01,35,5.20
2009,03,31,01,36,5.20
2009,03,31,01,38,5.20
2009,03,31,01,39,5.20
2009,03,31,01,40,5.20
2009,03,31,01,41,5.20
2009,03,31,01,42,5.20
2009,03,31,01,43,5.20
2009,03,31,01,44,5.20
2009,03,31,01,45,5.20
2009,03,31,01,46,5.20
2009,03,31,01,47,5.20
2009,03,31,01,48,5.20
2009,03,31,01,49,5.20
2009,03,31,01,50,5.20
2009,03,31,01,51,5.20
2009,03,31,01,52,5.20
2009,03,31,01,53,5.20
2009,03,31,01,54,5.20
2009,03,31,01,55,5.20
2009,03,31,01,56,5.20
2009,03,31,01,57,5.20
2009,03,31,01,58,5.20
2009,03,31,01,59,5.20
2009,03,31,02,00,5.20
2009,03,31,02,02,5.20
2009,03,31,02,03,5.20
2009,03,31,02,04,5.20
2009,03,31,02,05,5.20
2009,03,31,02,07,5.20
2009,03,31,02,09,5.20
2009,03,31,02,10,5.20
2009,03,31,02,11,5.20
2009,03,31,02,12,5.20
2009,03,31,02,13,5.20
2009,03,31,02,14,5.20
2009,03,31,02,15,5.20
2009,03,31,02,16,5.20
2009,03,31,02,17,5.20
2009,03,31,02,18,5.20
2009,03,31,02,19,5.20
2009,03,31,02,20,5.20
2009,03,31,02,21,5.20
2009,03,31,02,22,5.20
2009,03,31,02,23,5.20
2009,03,31,02,24,5.20
2009,03,31,02,25,5.20
2009,03,31,02,26,5.30
2009,03,31,02,27,5.30
2009,03,31,02,28,5.30
2009,03,31,02,29,5.30
2009,03,31,02,30,5.30
2009,03,31,02,31,5.30
2009,03,31,02,32,5.30
2009,03,31,02,33,5.30
2009,03,31,02,34,5.30
2009,03,31,02,35,5.30
2009,03,31,02,36,5.30
2009,03,31,02,37,5.20
2009,03,31,02,38,5.20
2009,03,31,02,39,5.20
2009,03,31,02,40,5.20
2009,03,31,02,41,5.20
2009,03,31,02,42,5.20
2009,03,31,02,43,5.20
2009,03,31,02,44,5.20
2009,03,31,02,45,5.10
2009,03,31,02,46,5.10
2009,03,31,02,47,5.10
2009,03,31,02,48,5.10
2009,03,31,02,49,5.10
2009,03,31,02,50,5.10
2009,03,31,02,51,5.00
2009,03,31,02,52,5.00
2009,03,31,02,53,4.90
2009,03,31,02,54,4.90
2009,03,31,02,55,4.90
2009,03,31,02,56,4.90
2009,03,31,02,57,4.90
2009,03,31,02,58,4.90
2009,03,31,02,59,4.90
2009,03,31,03,02,4.80
2009,03,31,03,03,4.80
2009,03,31,03,04,4.80
2009,03,31,03,05,4.80
2009,03,31,03,06,4.80
2009,03,31,03,07,4.80
2009,03,31,03,08,4.80
2009,03,31,03,09,4.80
2009,03,31,03,10,4.80
2009,03,31,03,11,4.70
2009,03,31,03,12,4.70
2009,03,31,03,13,4.70
2009,03,31,03,14,4.70
2009,03,31,03,15,4.70
2009,03,31,03,16,4.70
2009,03,31,03,17,4.70
2009,03,31,03,19,4.60
2009,03,31,03,20,4.60
2009,03,31,03,21,4.60
2009,03,31,03,22,4.60
2009,03,31,03,23,4.60
2009,03,31,03,24,4.60
2009,03,31,03,25,4.60
2009,03,31,03,26,4.60
2009,03,31,03,28,4.50
2009,03,31,03,29,4.50
2009,03,31,03,30,4.50
2009,03,31,03,31,4.50
2009,03,31,03,32,4.50
2009,03,31,03,33,4.40
2009,03,31,03,34,4.40
2009,03,31,03,35,4.40
2009,03,31,03,36,4.40
2009,03,31,03,37,4.40
2009,03,31,03,38,4.40
2009,03,31,03,39,4.40
2009,03,31,03,41,4.40
2009,03,31,03,42,4.40
2009,03,31,03,43,4.30
2009,03,31,03,44,4.30
2009,03,31,03,45,4.30
2009,03,31,03,46,4.30
2009,03,31,03,47,4.30
2009,03,31,03,48,4.30
2009,03,31,03,49,4.30
2009,03,31,03,50,4.30
2009,03,31,03,51,4.30
2009,03,31,03,52,4.30
2009,03,31,03,53,4.30
2009,03,31,03,54,4.30
2009,03,31,03,55,4.30
2009,03,31,03,56,4.30
2009,03,31,03,57,4.20
2009,03,31,03,58,4.20
2009,03,31,03,59,4.20
2009,03,31,04,00,4.20
2009,03,31,04,02,4.20
2009,03,31,04,03,4.20
2009,03,31,04,04,4.20
2009,03,31,04,05,4.20
2009,03,31,04,06,4.20
2009,03,31,04,07,4.20
2009,03,31,04,08,4.20
2009,03,31,04,09,4.20
2009,03,31,04,10,4.20
2009,03,31,04,11,4.20
2009,03,31,04,12,4.20
2009,03,31,04,14,4.20
2009,03,31,04,15,4.20
2009,03,31,04,16,4.20
2009,03,31,04,17,4.10
2009,03,31,04,18,4.20
2009,03,31,04,19,4.10
2009,03,31,04,20,4.10
2009,03,31,04,21,4.10
2009,03,31,04,22,4.10
2009,03,31,04,23,4.10
2009,03,31,04,24,4.10
2009,03,31,04,25,4.10
2009,03,31,04,26,4.10
2009,03,31,04,27,4.10
2009,03,31,04,28,4.10
2009,03,31,04,29,4.10
2009,03,31,04,30,4.10
2009,03,31,04,31,4.10
2009,03,31,04,32,4.10
2009,03,31,04,33,4.10
2009,03,31,04,34,4.10
2009,03,31,04,35,4.10
2009,03,31,04,36,4.10
2009,03,31,04,37,4.10
2009,03,31,04,38,4.10
2009,03,31,04,39,4.10
2009,03,31,04,40,4.10
2009,03,31,04,41,4.10
2009,03,31,04,42,4.10
2009,03,31,04,43,4.10
2009,03,31,04,44,4.10
2009,03,31,04,45,4.10
2009,03,31,04,46,4.10
2009,03,31,04,47,4.10
2009,03,31,04,48,4.10
2009,03,31,04,49,4.10
2009,03,31,04,50,4.10
2009,03,31,04,51,4.10
2009,03,31,04,52,4.10
2009,03,31,04,53,4.10
2009,03,31,04,54,4.10
2009,03,31,04,55,4.10
2009,03,31,04,56,4.10
2009,03,31,04,57,4.10
2009,03,31,04,58,4.10
2009,03,31,04,59,4.10
2009,03,31,05,00,4.00
2009,03,31,05,02,4.00
2009,03,31,05,03,4.00
2009,03,31,05,04,4.00
2009,03,31,05,05,4.00
2009,03,31,05,06,4.00
2009,03,31,05,07,4.00
2009,03,31,05,08,3.90
2009,03,31,05,09,3.90
2009,03,31,05,10,3.90
2009,03,31,05,11,3.90
2009,03,31,05,12,3.90
2009,03,31,05,13,3.90
2009,03,31,05,14,3.90
2009,03,31,05,15,3.90
2009,03,31,05,16,3.90
2009,03,31,05,17,3.80
2009,03,31,05,18,3.80
2009,03,31,05,19,3.90
2009,03,31,05,20,3.80
2009,03,31,05,21,3.80
2009,03,31,05,22,3.80
2009,03,31,05,23,3.80
2009,03,31,05,24,3.80
2009,03,31,05,25,3.80
2009,03,31,05,26,3.80
2009,03,31,05,27,3.80
2009,03,31,05,28,3.80
2009,03,31,05,29,3.80
2009,03,31,05,30,3.80
2009,03,31,05,31,3.80
2009,03,31,05,32,3.80
2009,03,31,05,33,3.80
2009,03,31,05,34,3.80
2009,03,31,05,35,3.70
2009,03,31,05,36,3.70
2009,03,31,05,37,3.70
2009,03,31,05,38,3.70
2009,03,31,05,39,3.70
2009,03,31,05,40,3.70
2009,03,31,05,41,3.60
2009,03,31,05,42,3.60
2009,03,31,05,43,3.60
2009,03,31,05,44,3.60
2009,03,31,05,45,3.50
2009,03,31,05,46,3.50
2009,03,31,05,47,3.40
2009,03,31,05,48,3.30
2009,03,31,05,49,3.30
2009,03,31,05,50,3.20
2009,03,31,05,51,3.10
2009,03,31,05,52,3.10
2009,03,31,05,53,3.10
2009,03,31,05,54,3.00
2009,03,31,05,55,3.00
2009,03,31,05,56,2.90
2009,03,31,05,57,2.90
2009,03,31,05,58,2.90
2009,03,31,05,59,2.90
2009,03,31,06,00,2.90
2009,03,31,06,02,2.80
2009,03,31,06,04,2.80
2009,03,31,06,05,2.80
2009,03,31,06,06,2.80
2009,03,31,06,07,2.80
2009,03,31,06,09,2.80
2009,03,31,06,10,2.80
2009,03,31,06,11,2.80
2009,03,31,06,12,2.80
2009,03,31,06,13,2.80
2009,03,31,06,14,2.80
2009,03,31,06,16,2.80
2009,03,31,06,17,2.80
2009,03,31,06,18,2.80
2009,03,31,06,19,2.80
2009,03,31,06,20,2.80
2009,03,31,06,21,2.80
2009,03,31,06,22,2.80
2009,03,31,06,23,2.80
2009,03,31,06,24,2.80
2009,03,31,06,25,2.80
2009,03,31,06,26,2.80
2009,03,31,06,27,2.80
2009,03,31,06,28,2.80
2009,03,31,06,29,2.80
2009,03,31,06,31,2.80
2009,03,31,06,32,2.80
2009,03,31,06,33,2.80
2009,03,31,06,34,2.70
2009,03,31,06,35,2.70
2009,03,31,06,36,2.70
2009,03,31,06,37,2.70
2009,03,31,06,38,2.70
2009,03,31,06,39,2.70
2009,03,31,06,40,2.70
2009,03,31,06,41,2.70
2009,03,31,06,42,2.70
2009,03,31,06,43,2.70
2009,03,31,06,44,2.70
2009,03,31,06,45,2.70
2009,03,31,06,46,2.70
2009,03,31,06,47,2.70
2009,03,31,06,48,2.70
2009,03,31,06,49,2.80
2009,03,31,06,50,2.80
2009,03,31,06,51,2.80
2009,03,31,06,52,2.80
2009,03,31,06,53,2.80
2009,03,31,06,54,2.80
2009,03,31,06,55,2.80
2009,03,31,06,56,2.80
2009,03,31,06,57,2.80
2009,03,31,06,58,2.80
2009,03,31,06,59,2.80
2009,03,31,07,00,2.80
2009,03,31,07,03,2.80
2009,03,31,07,04,2.80
2009,03,31,07,05,2.90
2009,03,31,07,06,2.90
2009,03,31,07,07,2.90
2009,03,31,07,09,2.90
2009,03,31,07,10,2.90
2009,03,31,07,11,2.90
2009,03,31,07,12,2.90
2009,03,31,07,13,2.90
2009,03,31,07,14,2.90
2009,03,31,07,15,2.90
2009,03,31,07,16,2.90
2009,03,31,07,17,2.90
2009,03,31,07,18,2.90
2009,03,31,07,19,2.90
2009,03,31,07,20,2.90
2009,03,31,07,21,2.90
2009,03,31,07,22,2.90
2009,03,31,07,23,2.90
2009,03,31,07,24,2.90
2009,03,31,07,25,2.90
2009,03,31,07,26,2.90
2009,03,31,07,27,2.90
2009,03,31,07,28,2.90
2009,03,31,07,29,2.90
2009,03,31,07,30,2.90
2009,03,31,07,31,2.90
2009,03,31,07,32,2.90
2009,03,31,07,33,3.00
2009,03,31,07,34,2.90
2009,03,31,07,35,3.00
2009,03,31,07,36,2.90
2009,03,31,07,37,3.00
2009,03,31,07,38,3.00
2009,03,31,07,39,3.00
2009,03,31,07,40,3.00
2009,03,31,07,41,3.00
2009,03,31,07,42,3.00
2009,03,31,07,43,3.00
2009,03,31,07,44,3.00
2009,03,31,07,45,3.10
2009,03,31,07,46,3.10
2009,03,31,07,47,3.10
2009,03,31,07,48,3.10
2009,03,31,07,49,3.10
2009,03,31,07,50,3.10
2009,03,31,07,51,3.10
2009,03,31,07,52,3.10
2009,03,31,07,53,3.10
2009,03,31,07,54,3.10
2009,03,31,07,55,3.10
2009,03,31,07,56,3.20
2009,03,31,07,57,3.10
2009,03,31,07,58,3.10
2009,03,31,07,59,3.20
2009,03,31,08,00,3.20
2009,03,31,08,02,3.20
2009,03,31,08,03,3.20
2009,03,31,08,04,3.20
2009,03,31,08,05,3.20
2009,03,31,08,06,3.20
2009,03,31,08,07,3.20
2009,03,31,08,08,3.20
2009,03,31,08,09,3.20
2009,03,31,08,10,3.20
2009,03,31,08,11,3.20
2009,03,31,08,12,3.20
2009,03,31,08,13,3.20
2009,03,31,08,14,3.20
2009,03,31,08,15,3.20
2009,03,31,08,16,3.20
2009,03,31,08,17,3.20
2009,03,31,08,18,3.20
2009,03,31,08,19,3.10
2009,03,31,08,20,3.20
2009,03,31,08,21,3.20
2009,03,31,08,22,3.20
2009,03,31,08,23,3.20
2009,03,31,08,24,3.20
2009,03,31,08,25,3.10
2009,03,31,08,26,3.20
2009,03,31,08,27,3.20
2009,03,31,08,28,3.20
2009,03,31,08,29,3.20
2009,03,31,08,30,3.20
2009,03,31,08,31,3.20
2009,03,31,08,32,3.20
2009,03,31,08,33,3.20
2009,03,31,08,34,3.20
2009,03,31,08,35,3.20
2009,03,31,08,36,3.20
2009,03,31,08,37,3.20
2009,03,31,08,38,3.20
2009,03,31,08,39,3.30
2009,03,31,08,40,3.30
2009,03,31,08,41,3.30
2009,03,31,08,42,3.30
2009,03,31,08,43,3.30
2009,03,31,08,44,3.30
2009,03,31,08,46,3.40
2009,03,31,08,47,3.40
2009,03,31,08,48,3.40
2009,03,31,08,49,3.40
2009,03,31,08,50,3.40
2009,03,31,08,51,3.40
2009,03,31,08,52,3.40
2009,03,31,08,53,3.40
2009,03,31,08,54,3.40
2009,03,31,08,55,3.50
2009,03,31,08,56,3.50
2009,03,31,08,57,3.60
2009,03,31,08,58,3.60
2009,03,31,08,59,3.60
2009,03,31,09,00,3.60
2009,03,31,09,02,3.70
2009,03,31,09,03,3.80
2009,03,31,09,04,3.80
2009,03,31,09,05,3.80
2009,03,31,09,06,3.80
2009,03,31,09,07,3.80
2009,03,31,09,08,3.90
2009,03,31,09,09,3.90
2009,03,31,09,10,3.90
2009,03,31,09,11,3.90
2009,03,31,09,12,4.00
2009,03,31,09,13,4.00
2009,03,31,09,14,4.10
2009,03,31,09,15,4.10
2009,03,31,09,16,4.10
2009,03,31,09,17,4.20
2009,03,31,09,19,4.20
2009,03,31,09,20,4.30
2009,03,31,09,21,4.30
2009,03,31,09,22,4.40
2009,03,31,09,23,4.40
2009,03,31,09,24,4.50
2009,03,31,09,25,4.60
2009,03,31,09,27,4.70
2009,03,31,09,28,4.70
2009,03,31,09,29,4.80
2009,03,31,09,30,4.80
2009,03,31,09,31,4.90
2009,03,31,09,32,5.00
2009,03,31,09,33,5.10
2009,03,31,09,34,5.20
2009,03,31,09,35,5.20
2009,03,31,09,36,5.30
2009,03,31,09,37,5.30
2009,03,31,09,38,5.40
2009,03,31,09,39,5.40
2009,03,31,09,40,5.50
2009,03,31,09,41,5.50
2009,03,31,09,42,5.60
2009,03,31,09,43,5.60
2009,03,31,09,44,5.70
2009,03,31,09,45,5.70
2009,03,31,09,46,5.80
2009,03,31,09,47,5.80
2009,03,31,09,48,5.80
2009,03,31,09,50,5.90
2009,03,31,09,51,6.00
2009,03,31,09,52,6.10
2009,03,31,09,53,6.10
2009,03,31,09,54,6.20
2009,03,31,09,55,6.20
2009,03,31,09,56,6.30
2009,03,31,09,57,6.30
2009,03,31,09,59,6.30
2009,03,31,10,00,6.30
2009,03,31,10,02,6.30
2009,03,31,10,03,6.30
2009,03,31,10,04,6.30
2009,03,31,10,05,6.30
2009,03,31,10,06,6.30
2009,03,31,10,08,6.40
2009,03,31,10,09,6.40
2009,03,31,10,10,6.50
2009,03,31,10,11,6.60
2009,03,31,10,13,6.70
2009,03,31,10,14,6.70
2009,03,31,10,15,6.70
2009,03,31,10,16,6.80
2009,03,31,10,18,6.90
2009,03,31,10,19,6.90
2009,03,31,10,20,7.10
2009,03,31,10,21,7.10
2009,03,31,10,23,7.20
2009,03,31,10,24,7.30
2009,03,31,10,25,7.30
2009,03,31,10,26,7.40
2009,03,31,10,28,7.60
2009,03,31,10,29,7.60
2009,03,31,10,30,7.70
2009,03,31,10,31,7.70
2009,03,31,10,33,7.80
2009,03,31,10,34,7.90
2009,03,31,10,35,7.90
2009,03,31,10,36,7.90
2009,03,31,10,38,8.10
2009,03,31,10,39,8.10
2009,03,31,10,40,8.20
2009,03,31,10,41,8.20
2009,03,31,10,42,8.30
2009,03,31,10,43,8.30
2009,03,31,10,44,8.40
2009,03,31,10,45,8.40
2009,03,31,10,46,8.50
2009,03,31,10,48,8.60
2009,03,31,10,49,8.60
2009,03,31,10,50,8.60
2009,03,31,10,52,8.70
2009,03,31,10,53,8.70
2009,03,31,10,54,8.70
2009,03,31,10,55,8.70
2009,03,31,10,56,8.80
2009,03,31,10,57,8.80
2009,03,31,10,58,8.80
2009,03,31,10,59,8.70
2009,03,31,11,00,8.70
2009,03,31,11,02,8.80
2009,03,31,11,03,8.80
2009,03,31,11,04,8.80
2009,03,31,11,05,8.80
2009,03,31,11,06,8.80
2009,03,31,11,07,8.90
2009,03,31,11,08,8.90
2009,03,31,11,09,9.00
2009,03,31,11,10,9.10
2009,03,31,11,11,9.10
2009,03,31,11,13,9.20
2009,03,31,11,14,9.20
2009,03,31,11,15,9.20
2009,03,31,11,16,9.20
2009,03,31,11,17,9.20
2009,03,31,11,18,9.20
2009,03,31,11,19,9.10
2009,03,31,11,20,9.20
2009,03,31,11,21,9.20
2009,03,31,11,23,9.20
2009,03,31,11,24,9.20
2009,03,31,11,25,9.20
2009,03,31,11,26,9.20
2009,03,31,11,28,9.20
2009,03,31,11,29,9.20
2009,03,31,11,30,9.20
2009,03,31,11,31,9.20
2009,03,31,11,33,9.10
2009,03,31,11,34,9.10
2009,03,31,11,35,9.20
2009,03,31,11,36,9.20
2009,03,31,11,38,9.30
2009,03,31,11,39,9.20
2009,03,31,11,40,9.10
2009,03,31,11,41,8.90
2009,03,31,11,43,8.80
2009,03,31,11,44,8.70
2009,03,31,11,45,8.70
2009,03,31,11,46,8.70
2009,03,31,11,48,8.70
2009,03,31,11,49,8.70
2009,03,31,11,50,8.80
2009,03,31,11,51,8.90
2009,03,31,11,53,9.10
2009,03,31,11,54,9.20
2009,03,31,11,55,9.30
2009,03,31,11,56,9.40
2009,03,31,11,58,9.60
2009,03,31,11,59,9.70
2009,03,31,12,00,9.80
2009,03,31,12,03,10.10
2009,03,31,12,04,10.20
2009,03,31,12,05,10.20
2009,03,31,12,06,10.30
2009,03,31,12,08,10.30
2009,03,31,12,09,10.40
2009,03,31,12,10,10.50
2009,03,31,12,11,10.60
2009,03,31,12,13,10.50
2009,03,31,12,14,10.40
2009,03,31,12,15,10.20
2009,03,31,12,16,10.10
2009,03,31,12,18,9.90
2009,03,31,12,19,9.80
2009,03,31,12,20,9.70
2009,03,31,12,21,9.60
2009,03,31,12,23,9.40
2009,03,31,12,24,9.20
2009,03,31,12,25,8.90
2009,03,31,12,26,8.50
2009,03,31,12,28,7.70
2009,03,31,12,29,7.50
2009,03,31,12,30,7.40
2009,03,31,12,31,7.30
2009,03,31,12,33,7.20
2009,03,31,12,34,7.10
2009,03,31,12,35,7.00
2009,03,31,12,36,6.90
2009,03,31,12,37,6.90
2009,03,31,12,38,6.90
2009,03,31,12,39,6.90
2009,03,31,12,40,6.90
2009,03,31,12,41,6.90
2009,03,31,12,42,7.00
2009,03,31,12,43,7.10
2009,03,31,12,44,7.10
2009,03,31,12,45,7.10
2009,03,31,12,47,7.10
2009,03,31,12,48,7.10
2009,03,31,12,49,7.10
2009,03,31,12,50,7.10
2009,03,31,12,51,7.20
2009,03,31,12,52,7.20
2009,03,31,12,53,7.20
2009,03,31,12,54,7.20
2009,03,31,12,55,7.20
2009,03,31,12,56,7.20
2009,03,31,12,58,7.10
2009,03,31,12,59,7.10
2009,03,31,13,00,7.10
2009,03,31,13,03,6.80
2009,03,31,13,04,6.80
2009,03,31,13,05,6.80
2009,03,31,13,06,6.70
2009,03,31,13,08,6.70
2009,03,31,13,09,6.70
2009,03,31,13,10,6.70
2009,03,31,13,11,6.70
2009,03,31,13,13,6.70
2009,03,31,13,14,6.70
2009,03,31,13,15,6.70
2009,03,31,13,16,6.70
2009,03,31,13,17,6.70
2009,03,31,13,18,6.70
2009,03,31,13,19,6.70
2009,03,31,13,20,6.70
2009,03,31,13,21,6.70
2009,03,31,13,22,6.80
2009,03,31,13,23,6.80
2009,03,31,13,24,6.80
2009,03,31,13,25,6.80
2009,03,31,13,26,6.80
2009,03,31,13,28,6.80
2009,03,31,13,29,6.90
2009,03,31,13,30,7.10
2009,03,31,13,31,7.20
2009,03,31,13,32,7.20
2009,03,31,13,33,7.30
2009,03,31,13,34,7.40
2009,03,31,13,35,7.50
2009,03,31,13,36,7.60
2009,03,31,13,38,7.80
2009,03,31,13,39,7.90
2009,03,31,13,40,8.00
2009,03,31,13,41,8.10
2009,03,31,13,43,8.20
2009,03,31,13,44,8.20
2009,03,31,13,45,8.30
2009,03,31,13,46,8.30
2009,03,31,13,48,8.50
2009,03,31,13,49,8.60
2009,03,31,13,50,8.60
2009,03,31,13,51,8.70
2009,03,31,13,52,8.80
2009,03,31,13,53,8.80
2009,03,31,13,54,8.90
2009,03,31,13,55,9.00
2009,03,31,13,56,9.10
2009,03,31,13,58,9.30
2009,03,31,13,59,9.30
2009,03,31,14,00,9.40
2009,03,31,14,03,9.40
2009,03,31,14,04,9.30
2009,03,31,14,05,9.20
2009,03,31,14,06,9.20
2009,03,31,14,08,9.20
2009,03,31,14,09,9.20
2009,03,31,14,10,9.30
2009,03,31,14,11,9.30
2009,03,31,14,13,9.40
2009,03,31,14,14,9.50
2009,03,31,14,15,9.60
2009,03,31,14,16,9.60
2009,03,31,14,18,9.70
2009,03,31,14,19,9.80
2009,03,31,14,20,9.90
2009,03,31,14,21,9.90
2009,03,31,14,23,10.20
2009,03,31,14,24,10.30
2009,03,31,14,25,10.40
2009,03,31,14,26,10.60
2009,03,31,14,28,10.70
2009,03,31,14,30,10.90
2009,03,31,14,31,10.90
2009,03,31,14,33,11.10
2009,03,31,14,34,11.10
2009,03,31,14,36,11.20
2009,03,31,14,38,11.20
2009,03,31,14,39,11.30
2009,03,31,14,40,11.20
2009,03,31,14,41,11.20
2009,03,31,14,43,11.30
2009,03,31,14,44,11.30
2009,03,31,14,45,11.30
2009,03,31,14,46,11.30
2009,03,31,14,48,11.40
2009,03,31,14,49,11.40
2009,03,31,14,50,11.50
2009,03,31,14,51,11.40
2009,03,31,14,53,10.90
2009,03,31,14,54,10.80
2009,03,31,14,55,10.80
2009,03,31,14,56,10.70
2009,03,31,14,57,10.60
2009,03,31,14,58,10.30
2009,03,31,14,59,10.20
2009,03,31,15,00,10.20
2009,03,31,15,01,10.20
2009,03,31,15,03,10.30
2009,03,31,15,04,10.30
2009,03,31,15,05,10.40
2009,03,31,15,06,10.40
2009,03,31,15,08,10.30
2009,03,31,15,09,10.30
2009,03,31,15,10,10.20
2009,03,31,15,11,10.20
2009,03,31,15,13,10.10
2009,03,31,15,14,10.10
2009,03,31,15,15,10.00
2009,03,31,15,16,10.00
2009,03,31,15,18,9.80
2009,03,31,15,19,9.70
2009,03,31,15,20,9.60
2009,03,31,15,21,9.60
2009,03,31,15,23,9.50
2009,03,31,15,24,9.40
2009,03,31,15,25,9.30
2009,03,31,15,26,9.30
2009,03,31,15,28,9.30
2009,03,31,15,29,9.30
2009,03,31,15,30,9.30
2009,03,31,15,31,9.20
2009,03,31,15,33,9.10
2009,03,31,15,34,9.10
2009,03,31,15,35,9.10
2009,03,31,15,36,9.10
2009,03,31,15,37,9.10
2009,03,31,15,38,8.90
2009,03,31,15,39,8.90
2009,03,31,15,40,8.80
2009,03,31,15,41,8.80
2009,03,31,15,42,8.80
2009,03,31,15,43,8.80
2009,03,31,15,44,8.70
2009,03,31,15,45,8.70
2009,03,31,15,46,8.70
2009,03,31,15,48,8.80
2009,03,31,15,49,8.80
2009,03,31,15,50,8.90
2009,03,31,15,51,8.90
2009,03,31,15,52,9.00
2009,03,31,15,53,9.10
2009,03,31,15,54,9.10
2009,03,31,15,55,9.20
2009,03,31,15,56,9.20
2009,03,31,15,57,9.20
2009,03,31,15,58,9.20
2009,03,31,15,59,9.20
2009,03,31,16,00,9.20
2009,03,31,16,02,9.20
2009,03,31,16,03,9.30
2009,03,31,16,04,9.30
2009,03,31,16,05,9.40
2009,03,31,16,06,9.40
2009,03,31,16,08,9.40
2009,03,31,16,09,9.30
2009,03,31,16,10,9.30
2009,03,31,16,11,9.30
2009,03,31,16,13,9.30
2009,03,31,16,14,9.30
2009,03,31,16,15,9.30
2009,03,31,16,16,9.30
2009,03,31,16,18,9.30
2009,03,31,16,19,9.30
2009,03,31,16,20,9.30
2009,03,31,16,21,9.30
2009,03,31,16,23,9.30
2009,03,31,16,24,9.40
2009,03,31,16,25,9.40
2009,03,31,16,26,9.40
2009,03,31,16,27,9.40
2009,03,31,16,28,9.40
2009,03,31,16,29,9.30
2009,03,31,16,30,9.30
2009,03,31,16,31,9.40
2009,03,31,16,32,9.40
2009,03,31,16,33,9.40
2009,03,31,16,34,9.40
2009,03,31,16,35,9.40
2009,03,31,16,36,9.40
2009,03,31,16,38,9.60
2009,03,31,16,39,9.60
2009,03,31,16,40,9.60
2009,03,31,16,41,9.60
2009,03,31,16,42,9.60
2009,03,31,16,43,9.60
2009,03,31,16,44,9.70
2009,03,31,16,45,9.70
2009,03,31,16,46,9.70
2009,03,31,16,48,9.80
2009,03,31,16,49,9.80
2009,03,31,16,50,9.90
2009,03,31,16,51,10.00
2009,03,31,16,53,10.10
2009,03,31,16,54,10.10
2009,03,31,16,55,10.00
2009,03,31,16,56,9.90
2009,03,31,16,58,9.90
2009,03,31,16,59,9.90
2009,03,31,17,00,9.90
2009,03,31,17,03,9.70
2009,03,31,17,04,9.70
2009,03,31,17,05,9.70
2009,03,31,17,06,9.60
2009,03,31,17,08,9.60
2009,03,31,17,09,9.60
2009,03,31,17,10,9.50
2009,03,31,17,11,9.40
2009,03,31,17,13,9.30
2009,03,31,17,14,9.30
2009,03,31,17,15,9.30
2009,03,31,17,16,9.20
2009,03,31,17,18,9.10
2009,03,31,17,19,9.10
2009,03,31,17,20,9.10
2009,03,31,17,21,9.10
2009,03,31,17,23,9.10
2009,03,31,17,24,9.20
2009,03,31,17,25,9.20
2009,03,31,17,26,9.20
2009,03,31,17,28,9.20
2009,03,31,17,29,9.20
2009,03,31,17,30,9.20
2009,03,31,17,31,9.20
2009,03,31,17,33,9.30
2009,03,31,17,34,9.30
2009,03,31,17,35,9.30
2009,03,31,17,38,9.30
2009,03,31,17,39,9.30
2009,03,31,17,40,9.30
2009,03,31,17,41,9.30
2009,03,31,17,43,9.20
2009,03,31,17,44,9.30
2009,03,31,17,45,9.20
2009,03,31,17,46,9.20
2009,03,31,17,48,9.20
2009,03,31,17,49,9.20
2009,03,31,17,50,9.20
2009,03,31,17,51,9.10
2009,03,31,17,53,9.00
2009,03,31,17,54,8.90
2009,03,31,17,55,8.90
2009,03,31,17,56,8.90
2009,03,31,17,58,8.90
2009,03,31,17,59,8.90
2009,03,31,18,00,8.90
2009,03,31,18,03,8.90
2009,03,31,18,04,8.90
2009,03,31,18,05,8.90
2009,03,31,18,06,8.90
2009,03,31,18,08,8.90
2009,03,31,18,09,8.90
2009,03,31,18,10,8.90
2009,03,31,18,11,8.90
2009,03,31,18,13,8.80
2009,03,31,18,14,8.80
2009,03,31,18,15,8.80
2009,03,31,18,16,8.80
2009,03,31,18,18,8.80
2009,03,31,18,19,8.80
2009,03,31,18,20,8.80
2009,03,31,18,21,8.80
2009,03,31,18,23,8.70
2009,03,31,18,24,8.70
2009,03,31,18,25,8.70
2009,03,31,18,26,8.70
2009,03,31,18,28,8.70
2009,03,31,18,29,8.70
2009,03,31,18,30,8.70
2009,03,31,18,31,8.70
2009,03,31,18,33,8.60
2009,03,31,18,34,8.50
2009,03,31,18,35,8.40
2009,03,31,18,36,8.40
2009,03,31,18,38,8.30
2009,03,31,18,39,8.30
2009,03,31,18,40,8.30
2009,03,31,18,41,8.20
2009,03,31,18,43,8.20
2009,03,31,18,44,8.10
2009,03,31,18,45,8.10
2009,03,31,18,46,8.10
2009,03,31,18,48,8.10
2009,03,31,18,49,8.10
2009,03,31,18,50,8.10
2009,03,31,18,51,8.10
2009,03,31,18,53,8.10
2009,03,31,18,54,8.20
2009,03,31,18,55,8.20
2009,03,31,18,56,8.20
2009,03,31,18,58,8.20
2009,03,31,18,59,8.20
2009,03,31,19,00,8.20
2009,03,31,19,03,8.30
2009,03,31,19,04,8.30
2009,03,31,19,05,8.20
2009,03,31,19,06,8.20
2009,03,31,19,08,8.20
2009,03,31,19,09,8.10
2009,03,31,19,10,8.10
2009,03,31,19,11,8.10
2009,03,31,19,13,8.10
2009,03,31,19,14,8.10
2009,03,31,19,15,8.00
2009,03,31,19,16,7.90
2009,03,31,19,18,7.90
2009,03,31,19,19,7.90
2009,03,31,19,20,7.80
2009,03,31,19,21,7.80
2009,03,31,19,22,7.80
2009,03,31,19,23,7.70
2009,03,31,19,24,7.70
2009,03,31,19,25,7.60
2009,03,31,19,26,7.60
2009,03,31,19,30,7.50
2009,03,31,19,31,7.40
2009,03,31,19,33,7.40
2009,03,31,19,34,7.40
2009,03,31,19,35,7.40
2009,03,31,19,36,7.30
2009,03,31,19,38,7.30
2009,03,31,19,39,7.30
2009,03,31,19,40,7.30
2009,03,31,19,41,7.30
2009,03,31,19,43,7.20
2009,03,31,19,44,7.20
2009,03,31,19,45,7.20
2009,03,31,19,46,7.20
2009,03,31,19,48,7.10
2009,03,31,19,49,7.10
2009,03,31,19,50,7.00
2009,03,31,19,51,6.90
2009,03,31,19,54,6.80
2009,03,31,19,55,6.80
2009,03,31,19,56,6.80
2009,03,31,19,58,6.70
2009,03,31,19,59,6.70
2009,03,31,20,00,6.70
2009,03,31,20,03,6.50
2009,03,31,20,04,6.40
2009,03,31,20,05,6.40
2009,03,31,20,06,6.30
2009,03,31,20,08,6.20
2009,03,31,20,09,6.20
2009,03,31,20,10,6.20
2009,03,31,20,11,6.10
2009,03,31,20,13,6.10
2009,03,31,20,14,6.00
2009,03,31,20,15,5.90
2009,03,31,20,16,5.90
2009,03,31,20,18,5.90
2009,03,31,20,19,5.80
2009,03,31,20,21,5.80
2009,03,31,20,23,5.80
2009,03,31,20,24,5.80
2009,03,31,20,25,5.80
2009,03,31,20,26,5.70
2009,03,31,20,28,5.70
2009,03,31,20,29,5.70
2009,03,31,20,30,5.60
2009,03,31,20,31,5.60
2009,03,31,20,33,5.60
2009,03,31,20,34,5.60
2009,03,31,20,35,5.50
2009,03,31,20,36,5.50
2009,03,31,20,38,5.40
2009,03,31,20,39,5.40
2009,03,31,20,40,5.30
2009,03,31,20,41,5.30
2009,03,31,20,43,5.30
2009,03,31,20,44,5.20